When you browse on this site, cookies collect data to enhance your experience and personalize the content and advertising you see.
Visit our Privacy Policy to learn more. By continuing to use the site, you agree to this use of cookies and data.
  • In Netherlands
  • List of Countries
  • For 7 days
  • Water Temperature
  • Weather Map
  • Weather Widgets
  • user-avatar
    Login

    Hourly Weather Mouscron

    Today, 4 April, Saturday

    Time Temperature Precipitation Wind Pressure Humidity
    00:00 +5°C° 0 mm 2 mps 762 mmHg 71%
    01:00 +6°C° 0 mm 2 mps 762 mmHg 71%
    02:00 +6°C° 0 mm 2 mps 762 mmHg 71%
    03:00 +6°C° 0 mm 2 mps 762 mmHg 71%
    04:00 +6°C° 0 mm 2 mps 762 mmHg 74%
    05:00 +5°C° 0 mm 2 mps 763 mmHg 77%
    06:00 +5°C° 0 mm 2 mps 763 mmHg 79%
    07:00 +7°C° 0 mm 2 mps 763 mmHg 75%
    08:00 +8°C° 0 mm 2 mps 763 mmHg 70%
    09:00 +10°C° 0 mm 3 mps 763 mmHg 66%
    10:00 +11°C° 0 mm 3 mps 763 mmHg 61%
    11:00 +13°C° 0 mm 3 mps 763 mmHg 56%
    12:00 +14°C° 0 mm 3 mps 763 mmHg 52%
    13:00 +14°C° 0 mm 3 mps 763 mmHg 50%
    14:00 +16°C° 0 mm 3 mps 762 mmHg 49%
    15:00 +16°C° 0 mm 3 mps 762 mmHg 48%
    16:00 +14°C° 0 mm 3 mps 762 mmHg 53%
    17:00 +14°C° 0 mm 2 mps 762 mmHg 58%
    18:00 +13°C° 0 mm 2 mps 762 mmHg 63%
    19:00 +12°C° 0 mm 2 mps 762 mmHg 66%
    20:00 +9°C° 0 mm 3 mps 762 mmHg 68%
    21:00 +8°C° 0 mm 3 mps 763 mmHg 71%
    22:00 +8°C° 0 mm 3 mps 763 mmHg 73%
    23:00 +7°C° 0 mm 3 mps 762 mmHg 75%

    Tomorrow, 5 April, Sunday

    Time Temperature Precipitation Wind Pressure Humidity
    00:00 +7°C° 0 mm 3 mps 762 mmHg 77%
    01:00 +5°C° 0 mm 3 mps 762 mmHg 77%
    02:00 +5°C° 0 mm 3 mps 762 mmHg 78%
    03:00 +5°C° 0 mm 3 mps 761 mmHg 78%
    04:00 +5°C° 0 mm 3 mps 761 mmHg 79%
    05:00 +5°C° 0 mm 3 mps 761 mmHg 80%
    06:00 +5°C° 0 mm 3 mps 761 mmHg 82%
    07:00 +7°C° 0 mm 4 mps 761 mmHg 76%
    08:00 +10°C° 0 mm 4 mps 760 mmHg 71%
    09:00 +12°C° 0 mm 5 mps 760 mmHg 65%
    10:00 +14°C° 0 mm 5 mps 760 mmHg 62%
    11:00 +15°C° 0 mm 5 mps 760 mmHg 58%
    12:00 +17°C° 0 mm 5 mps 759 mmHg 55%
    13:00 +17°C° 0 mm 5 mps 759 mmHg 54%
    14:00 +19°C° 0 mm 5 mps 759 mmHg 54%
    15:00 +19°C° 0 mm 5 mps 758 mmHg 53%
    16:00 +17°C° 0 mm 5 mps 758 mmHg 59%
    17:00 +16°C° 0 mm 5 mps 758 mmHg 64%
    18:00 +15°C° 0 mm 4 mps 758 mmHg 69%
    19:00 +14°C° 0 mm 4 mps 758 mmHg 70%
    20:00 +13°C° 0 mm 4 mps 758 mmHg 70%
    21:00 +11°C° 0 mm 4 mps 758 mmHg 71%
    22:00 +11°C° 0 mm 4 mps 758 mmHg 73%
    23:00 +11°C° 0 mm 4 mps 758 mmHg 75%

    Day after tomorrow, 6 April, Monday

    Time Temperature Precipitation Wind Pressure Humidity
    00:00 +10°C° 0 mm 4 mps 758 mmHg 77%
    01:00 +10°C° 0 mm 4 mps 758 mmHg 77%
    02:00 +10°C° 0 mm 4 mps 758 mmHg 77%
    03:00 +8°C° 0 mm 4 mps 758 mmHg 78%
    04:00 +8°C° 0 mm 4 mps 758 mmHg 78%
    05:00 +8°C° 0 mm 4 mps 758 mmHg 78%
    06:00 +8°C° 0 mm 5 mps 759 mmHg 77%
    07:00 +9°C° 0 mm 5 mps 759 mmHg 71%
    08:00 +12°C° 0 mm 5 mps 759 mmHg 65%
    09:00 +13°C° 0 mm 6 mps 760 mmHg 58%
    10:00 +14°C° 0 mm 6 mps 760 mmHg 56%
    11:00 +15°C° 0 mm 6 mps 760 mmHg 54%
    12:00 +16°C° 0 mm 5 mps 761 mmHg 51%
    13:00 +16°C° 0 mm 5 mps 761 mmHg 53%
    14:00 +16°C° 0 mm 5 mps 761 mmHg 54%
    15:00 +17°C° 0 mm 4 mps 762 mmHg 56%
    16:00 +14°C° 0.2 mm 4 mps 762 mmHg 65%
    17:00 +13°C° 0.2 mm 3 mps 763 mmHg 75%
    18:00 +11°C° 0.2 mm 3 mps 763 mmHg 85%
    19:00 +12°C° 0.2 mm 2 mps 764 mmHg 87%
    20:00 +10°C° 0.2 mm 2 mps 765 mmHg 89%
    21:00 +10°C° 0.2 mm 2 mps 765 mmHg 91%
    22:00 +9°C° 0 mm 2 mps 766 mmHg 91%
    23:00 +9°C° 0 mm 2 mps 766 mmHg 91%

    7 April, Tuesday

    Time Temperature Precipitation Wind Pressure Humidity
    00:00 +9°C° 0 mm 1 mps 767 mmHg 91%
    01:00 +8°C° 0 mm 1 mps 767 mmHg 90%
    02:00 +8°C° 0 mm 1 mps 767 mmHg 90%
    03:00 +7°C° 0 mm 0 mps 767 mmHg 89%
    04:00 +7°C° 0 mm 0 mps 768 mmHg 89%
    05:00 +7°C° 0 mm 0 mps 768 mmHg 89%
    06:00 +7°C° 0 mm 0 mps 768 mmHg 89%
    07:00 +9°C° 0 mm 0 mps 768 mmHg 83%
    08:00 +11°C° 0 mm 0 mps 769 mmHg 77%
    09:00 +14°C° 0 mm 1 mps 769 mmHg 70%
    10:00 +15°C° 0 mm 1 mps 769 mmHg 67%
    11:00 +16°C° 0 mm 1 mps 769 mmHg 63%
    12:00 +17°C° 0 mm 2 mps 769 mmHg 60%
    13:00 +17°C° 0 mm 2 mps 769 mmHg 60%
    14:00 +17°C° 0 mm 2 mps 768 mmHg 60%
    15:00 +17°C° 0 mm 2 mps 768 mmHg 60%
    16:00 +16°C° 0 mm 2 mps 768 mmHg 65%
    17:00 +16°C° 0 mm 2 mps 768 mmHg 69%
    18:00 +15°C° 0 mm 2 mps 768 mmHg 74%
    19:00 +14°C° 0 mm 2 mps 768 mmHg 77%
    20:00 +13°C° 0 mm 1 mps 769 mmHg 81%
    21:00 +12°C° 0 mm 1 mps 769 mmHg 84%
    22:00 +11°C° 0 mm 1 mps 769 mmHg 85%
    23:00 +11°C° 0 mm 1 mps 769 mmHg 86%

    8 April, Wednesday

    Time Temperature Precipitation Wind Pressure Humidity
    00:00 +11°C° 0 mm 1 mps 769 mmHg 87%
    01:00 +11°C° 0 mm 1 mps 769 mmHg 87%
    02:00 +10°C° 0 mm 1 mps 769 mmHg 88%
    03:00 +10°C° 0 mm 1 mps 768 mmHg 89%
    04:00 +10°C° 0 mm 1 mps 768 mmHg 89%
    05:00 +10°C° 0 mm 1 mps 768 mmHg 89%
    06:00 +10°C° 0 mm 1 mps 768 mmHg 89%
    07:00 +12°C° 0 mm 1 mps 768 mmHg 83%
    08:00 +14°C° 0 mm 1 mps 768 mmHg 77%
    09:00 +16°C° 0 mm 2 mps 768 mmHg 70%
    10:00 +17°C° 0 mm 2 mps 768 mmHg 66%
    11:00 +19°C° 0 mm 2 mps 768 mmHg 61%
    12:00 +20°C° 0 mm 2 mps 768 mmHg 56%
    13:00 +20°C° 0 mm 2 mps 768 mmHg 55%
    14:00 +20°C° 0 mm 2 mps 767 mmHg 54%
    15:00 +20°C° 0 mm 2 mps 767 mmHg 52%
    16:00 +19°C° 0 mm 3 mps 767 mmHg 60%
    17:00 +17°C° 0 mm 3 mps 767 mmHg 67%
    18:00 +14°C° 0 mm 4 mps 767 mmHg 75%
    19:00 +13°C° 0 mm 3 mps 767 mmHg 76%
    20:00 +12°C° 0 mm 3 mps 768 mmHg 78%
    21:00 +11°C° 0 mm 3 mps 768 mmHg 80%
    22:00 +10°C° 0 mm 3 mps 768 mmHg 80%
    23:00 +10°C° 0 mm 2 mps 768 mmHg 81%

    9 April, Thursday

    Time Temperature Precipitation Wind Pressure Humidity
    00:00 +10°C° 0 mm 2 mps 768 mmHg 82%
    01:00 +9°C° 0 mm 2 mps 768 mmHg 84%
    02:00 +9°C° 0 mm 2 mps 768 mmHg 87%
    03:00 +9°C° 0 mm 2 mps 768 mmHg 89%
    04:00 +9°C° 0 mm 2 mps 768 mmHg 90%
    05:00 +9°C° 0 mm 2 mps 768 mmHg 92%
    06:00 +9°C° 0 mm 2 mps 768 mmHg 93%
    07:00 +12°C° 0 mm 2 mps 768 mmHg 86%
    08:00 +14°C° 0 mm 2 mps 767 mmHg 80%
    09:00 +16°C° 0 mm 2 mps 767 mmHg 73%
    10:00 +18°C° 0 mm 2 mps 767 mmHg 67%
    11:00 +19°C° 0 mm 3 mps 767 mmHg 61%
    12:00 +20°C° 0 mm 3 mps 767 mmHg 54%
    13:00 +20°C° 0 mm 3 mps 766 mmHg 54%
    14:00 +20°C° 0 mm 3 mps 766 mmHg 53%
    15:00 +21°C° 0 mm 3 mps 766 mmHg 52%
    16:00 +20°C° 0 mm 3 mps 765 mmHg 57%
    17:00 +18°C° 0 mm 2 mps 765 mmHg 61%
    18:00 +17°C° 0 mm 2 mps 765 mmHg 66%
    19:00 +17°C° 0 mm 2 mps 765 mmHg 67%
    20:00 +16°C° 0 mm 2 mps 765 mmHg 69%
    21:00 +15°C° 0 mm 2 mps 765 mmHg 70%
    22:00 +14°C° 0 mm 3 mps 765 mmHg 70%
    23:00 +13°C° 0 mm 3 mps 765 mmHg 71%
    Show more